Wind_Speed
19 20 21 21 21 19 18 17 15 13 12 12 11 10 9 10 9 9 8 8 7 7 6 6 5 5 4 4 5 5 6 7 8 9 10 11 12 14 15 16 17 17 17 17
18 20 20 21 19 18 16 15 13 12 11 10 9 9 9 9 8 8 8 7 7 7 6 6 5 5 4 4 5 5 6 7 8 9 10 11 13 14 15 17 17 18 17 17
17 18 19 18 17 15 15 14 13 11 10 9 8 8 9 8 7 7 7 7 7 7 5 5 5 4 5 5 5 5 6 7 8 9 10 11 13 14 15 16 17 18 18 17
18 17 17 16 16 15 13 13 11 10 10 9 8 8 8 7 6 6 6 7 7 6 5 5 4 4 5 5 5 6 6 7 8 9 10 12 13 14 15 16 17 18 18 17
17 16 16 17 16 13 12 11 9 10 10 9 9 7 7 6 6 6 6 6 6 5 5 4 4 4 4 5 5 6 6 7 8 9 10 12 13 14 15 16 17 17 17 17
16 16 16 17 16 13 12 12 11 11 10 10 9 8 7 5 5 5 6 6 5 4 4 4 4 4 5 5 5 6 6 7 8 9 10 12 13 14 15 15 16 17 17 17
16 16 16 16 15 14 13 12 12 10 10 9 9 8 6 5 4 4 5 5 5 5 5 4 5 5 6 6 6 6 7 7 8 9 10 12 13 14 15 15 16 16 16 17
16 16 16 16 15 14 13 12 10 10 9 8 8 7 6 5 4 4 4 4 4 5 6 6 6 6 7 7 6 7 7 8 8 9 10 12 13 14 14 15 15 15 15 16
15 15 15 15 14 13 12 10 9 8 7 7 7 6 5 4 3 3 3 4 4 5 6 6 7 7 7 7 7 7 8 8 9 10 11 12 13 13 14 14 15 15 15 15
13 13 13 12 12 11 10 9 8 7 6 7 7 6 4 4 3 2 3 3 4 4 5 7 8 7 8 8 8 9 9 9 10 10 11 12 13 13 14 14 14 14 14 14
11 10 10 10 10 9 9 8 7 6 6 6 6 5 4 4 3 3 3 4 4 5 6 7 7 8 9 9 9 10 10 10 10 11 11 12 13 13 13 13 14 14 14 14
8 8 8 8 7 7 7 7 7 6 5 5 5 5 5 4 4 5 5 6 6 7 7 8 9 10 10 10 11 11 11 11 11 11 12 12 13 13 13 13 13 14 14 14
7 7 7 7 6 6 6 6 6 6 5 5 5 5 5 5 6 7 7 7 8 9 9 10 10 11 11 12 12 12 12 12 12 12 12 13 13 14 14 14 14 14 14 14
6 6 5 5 5 6 6 6 6 6 6 6 5 5 6 7 7 8 9 9 10 11 11 12 12 12 13 13 13 13 13 13 13 14 14 14 14 15 14 14 14 14 14 14
6 6 5 5 5 5 6 6 6 7 7 7 6 7 7 8 9 10 10 11 12 12 13 14 14 14 14 15 15 15 14 14 15 15 15 15 15 16 16 15 15 15 15 15
5 5 5 5 5 6 6 6 6 7 7 7 8 8 9 10 11 12 12 13 13 13 14 15 15 16 16 16 16 16 16 16 17 17 17 17 17 17 17 17 16 16 16 16
5 6 6 6 7 7 7 6 7 7 8 8 9 9 10 11 12 13 13 14 14 15 16 16 17 17 18 18 18 18 18 18 19 19 19 19 19 19 18 18 18 18 18 17
7 7 7 8 8 9 7 8 8 8 9 10 10 11 11 12 13 14 15 15 16 17 18 18 19 20 20 20 20 20 20 21 21 21 21 22 22 21 21 20 20 20 20 19
8 9 9 9 9 9 9 9 10 10 10 11 12 13 14 14 15 16 17 18 19 20 21 21 22 22 23 23 23 23 23 23 23 23 23 23 23 23 23 23 22 22 21 21
10 10 11 11 11 11 12 12 12 13 13 14 15 16 17 17 18 19 20 21 22 23 24 24 25 25 25 25 26 25 25 25 25 26 25 26 26 26 26 25 25 24 24 23
13 13 13 13 14 14 14 15 16 16 16 17 18 19 20 20 21 22 22 23 24 25 26 27 27 28 28 28 28 28 28 28 28 28 28 28 29 29 28 28 27 27 27 26
16 16 16 17 17 17 18 18 19 19 20 20 21 22 23 24 24 25 26 27 28 28 29 29 30 30 30 31 31 31 32 32 31 31 31 31 31 31 31 31 30 30 30 29
19 19 19 20 21 21 21 22 22 23 24 24 25 25 26 27 28 29 29 30 31 32 32 33 33 33 33 33 34 35 35 35 34 34 33 33 32 32 33 33 33 33 32 32
22 22 23 23 24 24 25 26 26 27 27 28 29 29 30 31 32 32 33 34 34 35 35 36 36 36 36 36 36 37 37 37 37 36 36 35 35 35 35 35 36 35 35 34
26 26 26 27 27 28 28 29 29 29 30 31 32 33 34 35 36 37 37 38 38 38 39 39 39 39 39 39 39 39 40 40 40 39 39 38 38 39 38 38 38 38 38 37
29 30 30 30 31 31 32 33 33 33 34 35 36 36 38 39 39 40 41 41 42 42 42 42 42 42 43 42 42 42 43 43 43 43 42 42 42 42 42 41 41 41 40 40
Wind_Direction
183 185 188 190 194 197 201 203 208 216 220 222 223 224 220 220 222 223 226 231 223 219 214 217 228 240 259 281 296 300 312 323 330 335 340 343 344 346 346 346 345 343 341 341
171 176 181 184 188 193 196 199 202 205 211 212 209 210 214 215 214 217 220 218 213 216 219 225 235 244 261 282 296 300 308 319 327 334 338 341 343 345 346 346 346 346 344 343
164 170 175 177 184 186 192 196 198 201 201 197 197 204 205 210 212 215 217 212 210 215 224 230 237 252 268 284 297 305 314 321 327 334 338 340 343 345 346 347 347 348 346 345
154 161 167 170 172 178 185 185 188 190 188 186 190 190 191 199 204 216 222 216 216 221 227 232 242 258 270 281 294 306 315 320 328 334 339 342 344 345 347 347 347 347 347 346
147 154 159 164 170 173 178 176 176 173 177 178 177 179 184 199 213 219 223 221 216 222 225 232 247 260 273 281 292 305 311 318 327 335 339 343 344 345 346 347 348 348 348 347
142 149 152 156 163 168 168 170 167 165 170 172 176 183 186 198 212 217 222 224 224 228 233 241 252 263 279 283 292 302 306 315 325 333 338 340 342 343 345 347 347 348 348 349
140 143 147 150 155 159 161 163 165 167 168 170 175 183 187 196 203 208 219 227 234 239 243 253 262 270 279 285 291 299 306 314 322 330 334 337 340 342 344 345 346 347 348 350
138 142 146 150 153 157 161 163 166 167 166 166 172 177 182 190 200 210 220 228 236 244 250 260 270 276 280 285 292 299 305 311 318 325 330 333 337 340 342 343 344 345 347 349
138 142 146 151 156 159 161 165 169 171 169 173 175 173 172 186 197 221 237 244 245 253 259 265 272 282 286 287 293 297 302 307 313 319 325 329 333 335 339 341 342 344 346 347
138 143 148 152 156 159 161 164 170 177 180 182 180 180 188 201 217 241 261 262 262 269 274 275 278 285 288 290 292 294 298 303 307 312 319 324 328 332 335 337 339 341 344 345
142 147 150 154 158 162 169 176 181 186 187 187 192 197 203 220 239 259 277 289 291 294 295 292 291 291 291 289 290 292 295 300 305 309 313 318 323 327 331 333 336 337 340 342
148 152 158 163 168 174 181 189 195 196 194 198 205 209 221 244 259 271 283 292 295 296 298 299 299 297 294 290 289 291 293 296 301 306 309 312 316 321 325 328 332 334 335 337
156 162 170 178 187 196 206 213 214 215 215 219 226 232 243 254 267 274 280 285 288 289 292 296 297 296 295 293 291 290 289 292 296 300 303 306 310 314 317 320 324 327 330 332
170 174 180 191 204 216 224 230 232 238 245 244 243 246 255 266 273 275 277 280 283 286 288 289 292 294 293 293 293 291 289 289 292 296 300 303 305 307 309 312 315 319 322 325
190 191 195 206 219 232 238 240 242 248 253 252 251 257 262 270 275 277 279 282 285 286 286 287 288 290 290 290 290 290 290 291 292 293 296 300 302 302 302 304 307 311 313 316
205 209 217 224 233 239 246 252 254 258 259 260 262 266 269 272 275 278 280 281 284 286 286 287 288 290 290 289 288 288 288 290 291 292 294 295 297 298 298 298 300 302 305 307
229 232 235 235 243 247 253 262 263 264 264 263 264 268 271 274 277 280 281 283 286 288 287 288 289 289 289 288 288 288 287 288 289 290 291 293 293 294 294 294 295 296 297 299
245 246 248 248 251 256 264 265 267 269 267 267 269 273 277 280 281 283 284 285 287 290 291 292 290 290 289 288 288 287 288 288 288 289 289 289 290 291 291 290 290 290 291 293
254 256 257 259 261 264 268 270 272 272 272 272 274 277 280 283 284 286 287 288 290 291 292 292 292 290 289 289 288 287 286 287 288 288 288 288 288 288 288 288 287 286 287 288
260 262 262 263 265 267 271 273 274 275 276 277 278 280 283 284 284 286 288 289 289 290 291 291 292 290 288 288 288 287 286 286 286 287 287 286 286 286 286 285 285 283 283 283
263 264 264 265 266 268 272 273 274 276 278 279 281 283 284 285 286 287 288 289 289 289 290 290 290 291 289 288 287 287 286 285 286 286 286 285 284 284 283 283 282 282 280 280
265 266 267 269 270 272 273 274 275 276 278 280 281 282 284 285 286 288 289 290 290 289 290 290 290 290 290 288 286 285 285 285 285 285 284 283 283 282 281 280 280 279 279 278
266 269 270 271 272 273 273 274 275 277 279 281 282 283 284 285 287 288 289 290 290 290 290 291 291 290 289 288 287 285 284 284 283 283 283 283 282 281 281 280 279 278 277 277
267 269 270 272 273 274 275 276 277 278 279 281 282 284 285 286 288 288 289 290 290 290 291 290 290 290 290 289 287 285 284 283 283 282 281 281 280 280 280 279 278 278 277 275
270 271 271 272 273 274 275 277 278 279 280 281 282 283 285 287 288 289 289 289 290 290 290 290 290 291 290 289 287 284 283 282 282 282 280 279 279 278 277 277 276 276 275 274
270 271 272 273 274 275 276 277 279 280 281 282 283 284 285 286 287 288 288 289 289 290 290 290 291 291 291 289 286 284 283 282 282 281 280 279 278 276 275 275 274 274 272 271
Height
5782 5788 5793 5799 5804 5809 5813 5817 5820 5823 5825 5828 5831 5832 5834 5836 5837 5839 5840 5840 5841 5842 5842 5843 5843 5844 5844 5844 5843 5842 5842 5840 5839 5838 5836 5834 5831 5829 5826 5823 5820 5816 5812 5809
5784 5789 5794 5798 5803 5808 5812 5816 5819 5821 5824 5827 5829 5831 5833 5834 5836 5837 5838 5839 5840 5841 5841 5842 5842 5842 5842 5842 5841 5841 5840 5839 5838 5836 5834 5832 5830 5827 5825 5821 5818 5814 5811 5807
5786 5791 5795 5799 5804 5808 5812 5816 5818 5821 5823 5826 5829 5830 5832 5833 5834 5835 5837 5838 5839 5839 5840 5840 5840 5841 5841 5840 5840 5839 5838 5837 5836 5834 5832 5831 5828 5826 5823 5820 5817 5813 5809 5806
5787 5792 5796 5801 5805 5809 5812 5815 5818 5820 5822 5825 5828 5830 5831 5832 5833 5834 5835 5837 5837 5838 5838 5839 5839 5839 5839 5839 5838 5837 5836 5835 5834 5833 5831 5829 5827 5824 5821 5818 5815 5812 5808 5805
5791 5794 5798 5802 5806 5809 5813 5816 5818 5820 5823 5825 5828 5830 5831 5831 5832 5834 5835 5836 5836 5837 5837 5837 5837 5837 5837 5837 5836 5836 5835 5834 5833 5831 5829 5827 5825 5823 5820 5817 5814 5811 5807 5803
5794 5797 5800 5803 5807 5810 5813 5816 5819 5821 5823 5826 5827 5829 5831 5831 5832 5833 5834 5834 5835 5835 5836 5836 5836 5836 5836 5835 5835 5834 5833 5832 5831 5829 5828 5826 5824 5821 5819 5816 5813 5809 5806 5802
5797 5800 5803 5805 5808 5812 5815 5818 5820 5821 5823 5825 5827 5829 5831 5831 5831 5832 5833 5833 5833 5834 5834 5834 5834 5834 5834 5833 5833 5832 5831 5830 5829 5828 5826 5824 5822 5820 5817 5815 5812 5808 5805 5802
5800 5803 5805 5808 5810 5813 5815 5818 5821 5823 5824 5825 5827 5828 5830 5830 5830 5831 5831 5832 5832 5832 5833 5833 5832 5832 5832 5831 5831 5830 5829 5829 5827 5826 5825 5823 5821 5819 5816 5813 5810 5807 5804 5801
5803 5806 5808 5810 5812 5815 5817 5819 5821 5823 5824 5825 5827 5828 5829 5829 5830 5830 5830 5831 5831 5831 5831 5831 5831 5830 5830 5829 5829 5828 5828 5827 5826 5824 5823 5821 5819 5817 5815 5812 5809 5806 5803 5800
5807 5809 5811 5812 5814 5816 5818 5819 5821 5823 5824 5825 5827 5827 5829 5829 5829 5830 5830 5829 5829 5830 5829 5829 5828 5828 5828 5828 5827 5826 5826 5825 5824 5823 5821 5819 5817 5815 5813 5811 5808 5805 5802 5799
5809 5811 5813 5814 5815 5817 5819 5820 5821 5823 5824 5825 5826 5829 5828 5828 5828 5829 5829 5829 5828 5828 5828 5827 5826 5826 5826 5826 5825 5824 5824 5823 5822 5820 5819 5818 5816 5814 5811 5809 5807 5804 5801 5799
5811 5813 5814 5815 5816 5817 5819 5820 5821 5823 5824 5824 5825 5830 5827 5827 5827 5827 5827 5827 5827 5826 5826 5825 5825 5824 5824 5823 5822 5822 5821 5820 5819 5818 5817 5815 5814 5812 5809 5807 5805 5803 5800 5797
5812 5813 5815 5816 5819 5819 5819 5819 5820 5822 5823 5823 5824 5828 5825 5826 5826 5826 5826 5825 5825 5824 5824 5823 5822 5821 5821 5820 5819 5819 5818 5817 5816 5815 5814 5812 5811 5809 5807 5805 5803 5801 5799 5796
5812 5813 5815 5816 5816 5817 5817 5818 5819 5820 5821 5822 5823 5824 5824 5823 5823 5823 5823 5823 5822 5822 5821 5821 5820 5818 5818 5817 5816 5816 5815 5814 5813 5812 5811 5809 5808 5806 5805 5803 5801 5799 5797 5794
5812 5813 5813 5814 5815 5815 5816 5817 5817 5818 5819 5820 5821 5821 5821 5821 5821 5821 5820 5820 5819 5819 5818 5817 5816 5815 5814 5813 5813 5812 5811 5810 5810 5808 5807 5806 5804 5803 5802 5800 5798 5796 5794 5792
5810 5811 5812 5813 5813 5814 5814 5815 5816 5816 5817 5817 5818 5818 5818 5818 5818 5817 5817 5817 5816 5815 5814 5814 5813 5812 5811 5810 5809 5808 5807 5806 5805 5804 5803 5802 5800 5799 5798 5796 5795 5793 5791 5789
5809 5810 5811 5811 5811 5812 5813 5814 5814 5814 5814 5815 5815 5816 5815 5815 5815 5814 5814 5813 5812 5811 5810 5809 5808 5807 5806 5805 5804 5803 5803 5802 5801 5800 5799 5797 5796 5795 5793 5792 5790 5789 5787 5786
5807 5807 5808 5808 5810 5810 5813 5811 5811 5811 5812 5811 5812 5812 5811 5811 5811 5810 5809 5809 5808 5807 5806 5805 5803 5802 5801 5800 5799 5798 5797 5796 5795 5794 5793 5792 5791 5789 5788 5787 5785 5784 5783 5781
5804 5805 5805 5806 5806 5807 5808 5808 5807 5808 5808 5808 5808 5808 5807 5807 5806 5806 5805 5804 5803 5802 5801 5799 5798 5797 5795 5794 5793 5792 5791 5790 5789 5788 5787 5786 5784 5783 5782 5781 5780 5778 5777 5776
5801 5802 5802 5802 5802 5803 5805 5804 5803 5805 5804 5804 5803 5803 5802 5802 5801 5801 5799 5798 5797 5796 5794 5793 5791 5790 5789 5787 5786 5785 5784 5783 5782 5780 5779 5778 5777 5776 5775 5774 5773 5772 5770 5769
5797 5798 5798 5798 5798 5799 5800 5799 5799 5800 5800 5799 5798 5797 5797 5796 5796 5795 5793 5792 5791 5789 5788 5786 5784 5783 5781 5779 5778 5777 5776 5775 5773 5772 5771 5770 5769 5768 5766 5766 5765 5764 5763 5762
5793 5793 5793 5793 5794 5796 5794 5794 5794 5794 5793 5792 5792 5791 5790 5789 5788 5787 5786 5785 5783 5782 5780 5778 5776 5775 5773 5771 5769 5768 5767 5765 5764 5763 5761 5760 5759 5758 5757 5756 5756 5755 5754 5754
5787 5788 5788 5789 5790 5788 5788 5787 5787 5786 5786 5785 5785 5784 5783 5782 5781 5780 5778 5776 5775 5773 5771 5769 5767 5765 5763 5761 5760 5758 5757 5755 5754 5753 5751 5750 5749 5748 5747 5746 5745 5745 5744 5744
5781 5781 5781 5781 5781 5780 5780 5779 5779 5779 5778 5777 5776 5776 5774 5773 5772 5771 5769 5767 5765 5763 5761 5759 5757 5755 5753 5751 5748 5746 5745 5744 5743 5742 5741 5740 5739 5738 5736 5735 5735 5734 5733 5733
5773 5773 5773 5773 5773 5772 5771 5771 5770 5770 5769 5768 5767 5766 5765 5763 5762 5760 5758 5756 5754 5752 5750 5748 5745 5743 5741 5739 5736 5734 5732 5731 5730 5729 5728 5728 5727 5726 5725 5724 5723 5722 5722 5721
5765 5764 5764 5764 5764 5763 5763 5761 5761 5760 5759 5758 5757 5755 5754 5752 5750 5748 5746 5744 5742 5740 5737 5735 5733 5730 5728 5725 5723 5721 5719 5718 5717 5716 5715 5714 5713 5712 5711 5710 5710 5709 5709 5708